UAL154 PKWA-PTSA

Flight info

Callsign UAL154
Flight time 1h 0m
Altitude 38000
Route STEFF A222 UKS
Aircraft B38M/M-SDE1FGHILORVWXY/HB1

Departure

Time 2026-04-22 20:28
Airport Bucholz Army Air Field (PKWA)

Arrival

Time 2026-04-22 21:29
Airport Kosrae International Airport (PTSA)
Time Latitude Longitude Altitude Speed Heading
2026-04-22 20:00 8.72699 167.74089 -34 ft 0 kts 118°
2026-04-22 20:22 8.72697 167.74091 -34 ft 2 kts 119°
2026-04-22 20:22 8.72673 167.74121 -34 ft 8 kts 141°
2026-04-22 20:22 8.72622 167.74143 -40 ft 8 kts 168°
2026-04-22 20:22 8.72569 167.74143 -34 ft 8 kts 190°
2026-04-22 20:23 8.72519 167.74128 -34 ft 8 kts 199°
2026-04-22 20:23 8.72462 167.74105 -46 ft 10 kts 211°
2026-04-22 20:23 8.72429 167.74041 -38 ft 12 kts 255°
2026-04-22 20:23 8.72405 167.73965 -48 ft 7 kts 230°
2026-04-22 20:24 8.72369 167.73936 -39 ft 8 kts 235°
2026-04-22 20:24 8.72342 167.73862 -47 ft 15 kts 253°
2026-04-22 20:24 8.72308 167.73752 -45 ft 17 kts 252°
2026-04-22 20:24 8.72270 167.73630 -36 ft 19 kts 252°
2026-04-22 20:25 8.72228 167.73494 -39 ft 21 kts 252°
2026-04-22 20:25 8.72182 167.73345 -34 ft 23 kts 253°
2026-04-22 20:25 8.72133 167.73184 -34 ft 25 kts 252°
2026-04-22 20:25 8.72079 167.73012 -37 ft 26 kts 252°
2026-04-22 20:26 8.72023 167.72830 -39 ft 28 kts 253°
2026-04-22 20:26 8.71964 167.72638 -37 ft 29 kts 252°
2026-04-22 20:26 8.71906 167.72448 -34 ft 28 kts 253°
2026-04-22 20:26 8.71852 167.72304 -41 ft 14 kts 225°
2026-04-22 20:27 8.71793 167.72295 -49 ft 8 kts 164°
2026-04-22 20:27 8.71752 167.72329 -34 ft 7 kts 85°
2026-04-22 20:27 8.71770 167.72382 -35 ft 12 kts 72°
2026-04-22 20:27 8.71877 167.72726 -50 ft 96 kts 72°
2026-04-22 20:28 8.72155 167.73633 -19 ft 170 kts 76°
2026-04-22 20:28 8.72443 167.74935 481 ft 206 kts 85°
2026-04-22 20:28 8.72218 167.76414 1441 ft 222 kts 110°
2026-04-22 20:28 8.71414 167.77744 2610 ft 227 kts 127°
2026-04-22 20:29 8.70183 167.78858 3348 ft 254 kts 148°
2026-04-22 20:29 8.68437 167.79390 4090 ft 263 kts 176°
2026-04-22 20:29 8.66625 167.79038 4906 ft 274 kts 204°
2026-04-22 20:29 8.65019 167.77937 4993 ft 283 kts 223°
2026-04-22 20:30 8.63825 167.76371 5014 ft 283 kts 237°
2026-04-22 20:30 8.62771 167.74691 5008 ft 283 kts 237°
2026-04-22 20:30 8.61700 167.73016 5003 ft 283 kts 236°
2026-04-22 20:30 8.60623 167.71347 5016 ft 284 kts 236°
2026-04-22 20:31 8.59539 167.69678 5148 ft 285 kts 236°
2026-04-22 20:31 8.58455 167.68013 6147 ft 285 kts 236°
2026-04-22 20:31 8.57353 167.66326 7103 ft 290 kts 236°
2026-04-22 20:31 8.56234 167.64611 8096 ft 295 kts 236°
2026-04-22 20:32 8.55097 167.62871 9051 ft 300 kts 236°
2026-04-22 20:32 8.53936 167.61097 9982 ft 305 kts 236°
2026-04-22 20:32 8.52743 167.59274 10632 ft 320 kts 236°
2026-04-22 20:32 8.51482 167.57354 11176 ft 335 kts 236°
2026-04-22 20:33 8.50175 167.55363 11853 ft 343 kts 236°
2026-04-22 20:33 8.48856 167.53347 12719 ft 346 kts 236°
2026-04-22 20:33 8.47521 167.51307 13520 ft 350 kts 236°
2026-04-22 20:33 8.46172 167.49247 14243 ft 354 kts 236°
2026-04-22 20:34 8.44828 167.47193 14929 ft 357 kts 236°
2026-04-22 20:34 8.43454 167.45094 15597 ft 360 kts 236°
2026-04-22 20:34 8.42065 167.42971 16255 ft 364 kts 236°
2026-04-22 20:34 8.40666 167.40835 16930 ft 367 kts 236°
2026-04-22 20:35 8.39250 167.38673 17584 ft 371 kts 236°
2026-04-22 20:35 8.37820 167.36487 18214 ft 374 kts 236°
2026-04-22 20:35 8.36376 167.34284 18746 ft 378 kts 236°
2026-04-22 20:35 8.34919 167.32060 19277 ft 381 kts 236°
2026-04-22 20:36 8.33453 167.29822 19833 ft 383 kts 236°
2026-04-22 20:36 8.31979 167.27573 20366 ft 385 kts 236°
2026-04-22 20:36 8.30493 167.25306 20869 ft 389 kts 236°
2026-04-22 20:36 8.28996 167.23021 21372 ft 392 kts 236°
2026-04-22 20:37 8.27488 167.20721 21905 ft 393 kts 236°
2026-04-22 20:37 8.25975 167.18414 22415 ft 395 kts 237°
2026-04-22 20:37 8.24447 167.16084 22879 ft 399 kts 237°
2026-04-22 20:37 8.22911 167.13743 23380 ft 402 kts 237°
2026-04-22 20:38 8.21365 167.11386 23803 ft 404 kts 237°
2026-04-22 20:38 8.19810 167.09017 24206 ft 406 kts 237°
2026-04-22 20:38 8.18247 167.06635 24597 ft 408 kts 237°
2026-04-22 20:38 8.16674 167.04238 24986 ft 411 kts 237°
2026-04-22 20:39 8.15092 167.01827 25367 ft 413 kts 237°
2026-04-22 20:39 8.13501 166.99405 25761 ft 415 kts 237°
2026-04-22 20:39 8.11900 166.96966 26137 ft 418 kts 237°
2026-04-22 20:39 8.10308 166.94542 26490 ft 421 kts 237°
2026-04-22 20:40 8.08663 166.92038 26889 ft 423 kts 236°
2026-04-22 20:40 8.07034 166.89558 27274 ft 425 kts 237°
2026-04-22 20:40 8.05393 166.87062 27629 ft 428 kts 237°
2026-04-22 20:40 8.03766 166.84586 28011 ft 429 kts 237°
2026-04-22 20:41 8.02116 166.82076 28426 ft 430 kts 237°
2026-04-22 20:41 8.00459 166.79555 28776 ft 432 kts 237°
2026-04-22 20:41 7.98792 166.77020 29134 ft 434 kts 237°
2026-04-22 20:41 7.97119 166.74476 29498 ft 436 kts 237°
2026-04-22 20:42 7.95438 166.71921 29806 ft 438 kts 237°
2026-04-22 20:42 7.93749 166.69352 30092 ft 441 kts 237°
2026-04-22 20:42 7.92049 166.66769 30388 ft 442 kts 237°
2026-04-22 20:42 7.90345 166.64181 30678 ft 444 kts 237°
2026-04-22 20:43 7.88633 166.61578 30924 ft 446 kts 237°
2026-04-22 20:43 7.86913 166.58966 31221 ft 448 kts 237°
2026-04-22 20:43 7.85187 166.56346 31508 ft 449 kts 237°
2026-04-22 20:43 7.83455 166.53716 31775 ft 451 kts 237°
2026-04-22 20:44 7.81714 166.51072 32015 ft 454 kts 237°
2026-04-22 20:44 7.79968 166.48422 32329 ft 454 kts 237°
2026-04-22 20:44 7.78216 166.45763 32586 ft 456 kts 237°
2026-04-22 20:44 7.76455 166.43089 32793 ft 459 kts 237°
2026-04-22 20:45 7.74687 166.40408 33048 ft 460 kts 237°
2026-04-22 20:45 7.72912 166.37714 33326 ft 461 kts 237°
2026-04-22 20:45 7.71134 166.35018 33483 ft 465 kts 237°
2026-04-22 20:45 7.69339 166.32298 33718 ft 466 kts 237°
2026-04-22 20:46 7.65751 166.26857 34293 ft 465 kts 236°
2026-04-22 20:46 7.63960 166.24142 34549 ft 465 kts 236°
2026-04-22 20:46 7.62168 166.21426 34834 ft 465 kts 236°
2026-04-22 20:47 7.60380 166.18715 35128 ft 464 kts 236°
2026-04-22 20:47 7.58593 166.16008 35390 ft 464 kts 236°
2026-04-22 20:47 7.56803 166.13297 35673 ft 464 kts 237°
2026-04-22 20:47 7.55021 166.10598 35984 ft 462 kts 237°
2026-04-22 20:48 7.53237 166.07897 36270 ft 462 kts 237°
2026-04-22 20:48 7.51460 166.05205 36554 ft 461 kts 237°
2026-04-22 20:48 7.49684 166.02518 36850 ft 460 kts 237°
2026-04-22 20:48 7.47934 165.99869 37124 ft 459 kts 236°
2026-04-22 20:49 7.46167 165.97195 37376 ft 459 kts 237°
2026-04-22 20:49 7.44399 165.94521 37643 ft 458 kts 236°
2026-04-22 20:49 7.42636 165.91855 37900 ft 457 kts 236°
2026-04-22 20:49 7.40872 165.89187 37947 ft 457 kts 237°
2026-04-22 20:50 7.37363 165.83882 37931 ft 453 kts 236°
2026-04-22 20:50 7.33853 165.78577 37924 ft 457 kts 236°
2026-04-22 20:51 7.30331 165.73257 37925 ft 456 kts 236°
2026-04-22 20:51 7.26809 165.67938 37925 ft 456 kts 236°
2026-04-22 20:52 7.23290 165.62625 37927 ft 456 kts 236°
2026-04-22 20:52 7.19771 165.57314 37926 ft 456 kts 236°
2026-04-22 20:53 7.16250 165.52002 37922 ft 456 kts 236°
2026-04-22 20:53 7.12731 165.46694 37920 ft 456 kts 236°
2026-04-22 20:54 7.09209 165.41384 37926 ft 456 kts 236°
2026-04-22 20:54 7.05687 165.36077 37924 ft 456 kts 236°
2026-04-22 20:55 7.02161 165.30764 37923 ft 456 kts 236°
2026-04-22 20:55 6.98610 165.25472 37920 ft 456 kts 234°
2026-04-22 20:56 6.94913 165.20275 37927 ft 457 kts 234°
2026-04-22 20:56 6.91247 165.15090 37925 ft 458 kts 234°
2026-04-22 20:57 6.87559 165.09874 37923 ft 458 kts 234°
2026-04-22 20:57 6.83870 165.04655 37922 ft 458 kts 234°
2026-04-22 20:58 6.80176 164.99433 37924 ft 458 kts 234°
2026-04-22 20:58 6.76789 164.94646 37924 ft 458 kts 234°
2026-04-22 20:59 6.73725 164.90316 37925 ft 457 kts 234°
2026-04-22 20:59 6.70030 164.85096 37925 ft 458 kts 234°
2026-04-22 21:00 6.66338 164.79882 37926 ft 458 kts 234°
2026-04-22 21:00 6.62643 164.74664 37925 ft 458 kts 234°
2026-04-22 21:01 6.58948 164.69450 37920 ft 459 kts 234°
2026-04-22 21:01 6.55230 164.64203 37924 ft 462 kts 234°
2026-04-22 21:02 6.51513 164.58959 37537 ft 457 kts 234°
2026-04-22 21:02 6.49660 164.56347 36592 ft 462 kts 234°
2026-04-22 21:02 6.47781 164.53697 35717 ft 467 kts 234°
2026-04-22 21:03 6.45904 164.51052 35190 ft 461 kts 234°
2026-04-22 21:03 6.44069 164.48463 34754 ft 451 kts 233°
2026-04-22 21:03 6.42263 164.45918 34264 ft 444 kts 233°
2026-04-22 21:03 6.40482 164.43408 33716 ft 438 kts 233°
2026-04-22 21:04 6.38723 164.40928 33141 ft 433 kts 234°
2026-04-22 21:04 6.36985 164.38482 32632 ft 426 kts 234°
2026-04-22 21:04 6.35278 164.36076 32156 ft 419 kts 234°
2026-04-22 21:04 6.33620 164.33741 31688 ft 413 kts 234°
2026-04-22 21:05 6.31962 164.31406 31219 ft 408 kts 234°
2026-04-22 21:05 6.30325 164.29102 30747 ft 403 kts 234°
2026-04-22 21:05 6.28683 164.26789 30279 ft 399 kts 234°
2026-04-22 21:05 6.27100 164.24560 29807 ft 394 kts 234°
2026-04-22 21:06 6.25517 164.22332 29263 ft 392 kts 234°
2026-04-22 21:06 6.23921 164.20086 28823 ft 397 kts 234°
2026-04-22 21:06 6.22309 164.17816 28407 ft 401 kts 234°
2026-04-22 21:06 6.20688 164.15535 27965 ft 400 kts 234°
2026-04-22 21:07 6.19071 164.13261 27528 ft 399 kts 234°
2026-04-22 21:07 6.17462 164.10997 27090 ft 398 kts 234°
2026-04-22 21:07 6.15860 164.08742 26656 ft 395 kts 233°
2026-04-22 21:07 6.14265 164.06500 26242 ft 394 kts 234°
2026-04-22 21:08 6.12676 164.04267 25814 ft 392 kts 234°
2026-04-22 21:08 6.11094 164.02042 25405 ft 391 kts 233°
2026-04-22 21:08 6.09516 163.99822 24998 ft 390 kts 233°
2026-04-22 21:08 6.07942 163.97610 24593 ft 388 kts 233°
2026-04-22 21:09 6.06374 163.95407 24198 ft 388 kts 233°
2026-04-22 21:09 6.04808 163.93206 23794 ft 387 kts 233°
2026-04-22 21:09 6.03247 163.91011 23377 ft 386 kts 233°
2026-04-22 21:09 6.01687 163.88818 22917 ft 385 kts 233°
2026-04-22 21:10 6.00133 163.86637 22507 ft 383 kts 233°
2026-04-22 21:10 5.98593 163.84473 22115 ft 380 kts 233°
2026-04-22 21:10 5.97062 163.82322 21730 ft 377 kts 233°
2026-04-22 21:10 5.95542 163.80186 21347 ft 375 kts 234°
2026-04-22 21:11 5.94031 163.78065 20964 ft 372 kts 233°
2026-04-22 21:11 5.92531 163.75958 20585 ft 370 kts 233°
2026-04-22 21:11 5.91037 163.73860 20205 ft 368 kts 234°
2026-04-22 21:11 5.89554 163.71778 19839 ft 366 kts 234°
2026-04-22 21:12 5.88075 163.69703 19470 ft 364 kts 233°
2026-04-22 21:12 5.86604 163.67638 19099 ft 363 kts 234°
2026-04-22 21:12 5.85138 163.65580 18729 ft 362 kts 234°
2026-04-22 21:12 5.83676 163.63529 18363 ft 360 kts 234°
2026-04-22 21:13 5.82219 163.61485 17954 ft 359 kts 234°
2026-04-22 21:13 5.80770 163.59450 17566 ft 357 kts 234°
2026-04-22 21:13 5.79329 163.57429 17190 ft 355 kts 234°
2026-04-22 21:13 5.77898 163.55421 16826 ft 352 kts 234°
2026-04-22 21:14 5.76475 163.53426 16466 ft 350 kts 234°
2026-04-22 21:14 5.75062 163.51444 16106 ft 348 kts 234°
2026-04-22 21:14 5.73658 163.49475 15743 ft 346 kts 234°
2026-04-22 21:14 5.72263 163.47518 15394 ft 344 kts 234°
2026-04-22 21:15 5.70874 163.45571 15037 ft 342 kts 234°
2026-04-22 21:15 5.69494 163.43636 14691 ft 340 kts 234°
2026-04-22 21:15 5.68119 163.41709 14341 ft 338 kts 234°
2026-04-22 21:15 5.66752 163.39792 13994 ft 337 kts 234°
2026-04-22 21:16 5.65390 163.37883 13636 ft 336 kts 234°
2026-04-22 21:16 5.64091 163.35944 13218 ft 334 kts 242°
2026-04-22 21:16 5.63101 163.33837 12821 ft 333 kts 245°
2026-04-22 21:16 5.62126 163.31741 12492 ft 330 kts 245°
2026-04-22 21:17 5.61151 163.29663 12163 ft 327 kts 245°
2026-04-22 21:17 5.60195 163.27633 11831 ft 325 kts 245°
2026-04-22 21:17 5.59231 163.25589 11486 ft 323 kts 245°
2026-04-22 21:17 5.58273 163.23560 11166 ft 320 kts 245°
2026-04-22 21:18 5.57319 163.21541 10827 ft 319 kts 245°
2026-04-22 21:18 5.56371 163.19533 10485 ft 318 kts 245°
2026-04-22 21:18 5.55426 163.17535 10198 ft 315 kts 245°
2026-04-22 21:18 5.54499 163.15573 10041 ft 307 kts 245°
2026-04-22 21:19 5.53596 163.13662 9842 ft 301 kts 245°
2026-04-22 21:19 5.52702 163.11771 9504 ft 299 kts 245°
2026-04-22 21:19 5.51810 163.09885 9150 ft 299 kts 245°
2026-04-22 21:19 5.50921 163.08003 8828 ft 297 kts 245°
2026-04-22 21:20 5.50035 163.06131 8509 ft 296 kts 245°
2026-04-22 21:20 5.49154 163.04265 8190 ft 295 kts 245°
2026-04-22 21:20 5.48275 163.02407 7867 ft 294 kts 245°
2026-04-22 21:20 5.47400 163.00557 7563 ft 293 kts 245°
2026-04-22 21:21 5.46530 162.98718 7254 ft 291 kts 245°
2026-04-22 21:21 5.45661 162.96882 6936 ft 291 kts 245°
2026-04-22 21:21 5.44795 162.95053 6628 ft 290 kts 245°
2026-04-22 21:21 5.43930 162.93227 6319 ft 289 kts 245°
2026-04-22 21:22 5.43067 162.91401 5979 ft 289 kts 245°
2026-04-22 21:22 5.42205 162.89582 5628 ft 288 kts 245°
2026-04-22 21:22 5.41355 162.87785 5319 ft 284 kts 245°
2026-04-22 21:22 5.40508 162.85994 5020 ft 284 kts 245°
2026-04-22 21:23 5.39661 162.84209 4701 ft 283 kts 245°
2026-04-22 21:23 5.38832 162.82456 4404 ft 281 kts 245°
2026-04-22 21:23 5.37998 162.80693 4125 ft 278 kts 245°
2026-04-22 21:23 5.37179 162.78961 3976 ft 271 kts 245°
2026-04-22 21:24 5.36120 162.77445 3805 ft 265 kts 219°
2026-04-22 21:24 5.34519 162.76637 3645 ft 255 kts 189°
2026-04-22 21:24 5.32812 162.76675 3559 ft 239 kts 163°
2026-04-22 21:24 5.31377 162.77385 3429 ft 225 kts 137°
2026-04-22 21:25 5.30509 162.78613 3264 ft 211 kts 109°
2026-04-22 21:25 5.30170 162.79992 3160 ft 196 kts 94°
2026-04-22 21:25 5.30187 162.81325 2919 ft 190 kts 82°
2026-04-22 21:25 5.30381 162.82639 2589 ft 190 kts 78°
2026-04-22 21:26 5.30630 162.83914 2367 ft 185 kts 77°
2026-04-22 21:26 5.30890 162.85182 2238 ft 185 kts 78°
2026-04-22 21:26 5.31201 162.86436 2024 ft 187 kts 72°
2026-04-22 21:26 5.31585 162.87691 1755 ft 189 kts 71°
2026-04-22 21:27 5.31999 162.88946 1467 ft 191 kts 71°
2026-04-22 21:27 5.32398 162.90206 1166 ft 189 kts 70°
2026-04-22 21:27 5.32889 162.91398 923 ft 175 kts 63°
2026-04-22 21:27 5.33438 162.92413 752 ft 156 kts 59°
2026-04-22 21:28 5.33984 162.93304 524 ft 151 kts 57°
2026-04-22 21:28 5.34576 162.94192 325 ft 153 kts 56°
2026-04-22 21:28 5.35163 162.95061 96 ft 147 kts 55°
2026-04-22 21:28 5.35703 162.95850 31 ft 117 kts 55°
2026-04-22 21:29 5.36011 162.96301 32 ft 45 kts 56°
2026-04-22 21:29 5.36095 162.96404 32 ft 7 kts 92°
2026-04-22 21:29 5.36074 162.96428 32 ft 4 kts 180°
2026-04-22 21:29 5.36049 162.96388 32 ft 15 kts 247°
2026-04-22 21:30 5.35964 162.96241 32 ft 34 kts 236°
2026-04-22 21:30 5.35812 162.96014 31 ft 43 kts 237°
2026-04-22 21:30 5.35643 162.95761 29 ft 45 kts 236°
2026-04-22 21:30 5.35501 162.95555 31 ft 19 kts 231°
2026-04-22 21:31 5.35420 162.95546 30 ft 11 kts 147°
2026-04-22 21:31 5.35393 162.95580 30 ft 5 kts 114°
2026-04-22 21:31 5.35366 162.95608 30 ft 7 kts 160°
2026-04-22 21:31 5.35342 162.95601 30 ft 4 kts 225°
2026-04-22 21:32 5.35337 162.95593 30 ft 0 kts 236°